Weather History for Knoxville, TN

Change the Weather History Date:

Sunday, June 1, 2014

  Actual Average Record
Temperature  
Mean Temperature 77 °F 72 °F  
Max Temperature 84 °F 82 °F 97 °F (1951)
Min Temperature 69 °F 61 °F 43 °F (1894)
Degree Days  
Heating Degree Days 0 0  
Month to date heating degree days 0 0  
Since 1 June heating degree days 0 0  
Since 1 July heating degree days 3797 3633  
Cooling Degree Days 12 7  
Month to date cooling degree days 12 7  
Year to date cooling degree days 217 169  
Since 1 June cooling degree days 12 7  
Growing Degree Days 27 (Base 50)    
Moisture  
Dew Point 62 °F    
Average Humidity 67    
Maximum Humidity 84    
Minimum Humidity 49    
Precipitation  
Precipitation 0.00 in 0.13 in 2.86 in (1998)
Month to date precipitation 0.00 0.13  
Year to date precipitation 16.03 21.57  
Snow  
Snow 0.00 in 0.00 in - ()
Month to date snowfall 0.0 0.0  
Since 1 June snowfall 0.0 0.0  
Since 1 July snowfall 12.4 6.5  
Snow Depth 0.00 in    
Sea Level Pressure  
Sea Level Pressure 30.14 in    
Wind  
Wind Speed 6 mph (WSW)    
Max Wind Speed 15 mph    
Max Gust Speed 18 mph    
Visibility 10 miles    
Events      
T = Trace of Precipitation, MM = Missing Value Source: NWS Daily Summary

Daily Weather History Graph

Daily Weather History Graph

Search for Another Location

Airport:

Trip Planner

Search our weather history database for the weather conditions in past years. The results will help you decide how hot, cold, wet, or windy it might be!

Date:

Astronomy

Jun. 01, 2014 Rise Set
Actual Time 6:21 AM EDT 8:46 PM EDT
Civil Twilight 5:51 AM EDT 9:16 PM EDT
Nautical Twilight 5:14 AM EDT 9:53 PM EDT
Astronomical Twilight 4:34 AM EDT 10:33 PM EDT
Moon 9:48 AM EDT (6/1) 11:46 PM EDT (6/1)
Length of Visible Light 15h 25m
Length of Day
14h 25m
Waxing Crescent, 14% of the Moon is Illuminated
Jun 1
Waxing Crescent
Jun 5
First Quarter
Jun 13
Full
Jun 19
Last Quarter
Jun 27
New

Hourly Weather History & Observations

Time (EDT) Temp. Heat Index Dew Point Humidity Pressure Visibility Wind Dir Wind Speed Gust Speed Precip Events Conditions
1:53 AM 72.0 °F - 66.0 °F 81% 30.10 in 10.0 mi West 3.5 mph - N/A   Overcast
2:53 AM 72.0 °F - 66.9 °F 84% 30.11 in 10.0 mi NW 4.6 mph - N/A   Overcast
3:53 AM 72.0 °F - 66.0 °F 81% 30.11 in 10.0 mi WNW 3.5 mph - N/A   Overcast
4:53 AM 72.0 °F - 66.0 °F 81% 30.11 in 10.0 mi North 3.5 mph - N/A   Overcast
5:53 AM 72.0 °F - 66.0 °F 81% 30.13 in 10.0 mi Calm Calm - N/A   Overcast
6:53 AM 71.1 °F - 66.9 °F 87% 30.14 in 10.0 mi Calm Calm - N/A   Mostly Cloudy
7:53 AM 72.0 °F - 62.1 °F 71% 30.16 in 10.0 mi SSE 4.6 mph - N/A   Mostly Cloudy
8:53 AM 73.0 °F - 66.0 °F 79% 30.18 in 10.0 mi ENE 4.6 mph - N/A   Overcast
9:53 AM 75.2 °F - 64.4 °F 69% 30.21 in 10.0 mi Calm Calm - N/A   Overcast
10:53 AM 77.0 °F - 59.0 °F 54% 30.17 in 10.0 mi Variable 3.5 mph - N/A   Overcast
11:53 AM 80.1 °F 80.7 °F 59.0 °F 48% 30.17 in 10.0 mi SE 6.9 mph - N/A   Overcast
12:53 PM 80.1 °F 80.9 °F 60.1 °F 50% 30.18 in 10.0 mi West 4.6 mph - N/A   Overcast
1:53 PM 81.0 °F 81.6 °F 60.1 °F 49% 30.17 in 10.0 mi Variable 3.5 mph - N/A   Mostly Cloudy
2:53 PM 82.0 °F 83.0 °F 62.1 °F 51% 30.15 in 10.0 mi West 11.5 mph - N/A   Mostly Cloudy
3:53 PM 82.9 °F 84.0 °F 63.0 °F 51% 30.14 in 10.0 mi West 9.2 mph - N/A   Mostly Cloudy
4:53 PM 82.0 °F 83.1 °F 63.0 °F 52% 30.11 in 10.0 mi West 9.2 mph - N/A   Mostly Cloudy
5:53 PM 81.0 °F 81.9 °F 62.1 °F 52% 30.10 in 10.0 mi West 11.5 mph - N/A   Partly Cloudy
6:53 PM 79.0 °F - 60.1 °F 52% 30.09 in 10.0 mi WSW 11.5 mph - N/A   Mostly Cloudy
7:53 PM 77.0 °F - 62.1 °F 60% 30.10 in 10.0 mi WSW 9.2 mph - N/A   Mostly Cloudy
8:53 PM 73.9 °F - 59.0 °F 59% 30.13 in 10.0 mi WSW 11.5 mph - N/A   Clear
9:53 PM 71.1 °F - 59.0 °F 66% 30.14 in 10.0 mi SW 9.2 mph - N/A   Mostly Cloudy
10:53 PM 71.1 °F - 57.9 °F 63% 30.16 in 10.0 mi SSW 8.1 mph - N/A   Mostly Cloudy
11:53 PM 71.1 °F - 57.9 °F 63% 30.16 in 10.0 mi West 4.6 mph - N/A   Scattered Clouds